Location: Malvern Link
(52.1333°N, 2.3000°W)
Time: 22:37:32
(UTC+00:00)

SPROUT - Pass Details

Date: 05 July 2022
Orbit: 588 x 598 km, 97.9° (Epoch: 14 August)

Event Time Altitude Azimuth Distance (km) Brightness Sun altitude
Exits shadow 00:56:20 24° 176° (S) 1,232 ? -14.5°
Maximum altitude 00:58:45 72° 256° (WSW) 625 ? -14.4°
Drops below altitude 10° 01:02:57 10° 342° (NNW) 1,933 ? -14.3°
Sets 01:05:08 0° 345° (NNW) 2,841 ? -14.2°
